DW9840 Weather Reports


Display with metric or nautical units.
time (UTC)temp
F
wind
direction
speed
MPH
gust
MPH
rain 1hr
in
rain 24hr
in
rain mn
in
humidity
%
barometer
mb
20260503211600 64 172 0.0 0.0 0.00 0.00 0.00 60 1011.8
20260503210053 64 229 0.0 0.0 0.00 0.00 0.00 60 1011.8
20260503204550 64 228 0.0 1.0 0.00 0.00 0.00 61 1011.8
20260503203102 64 270 0.0 3.0 0.00 0.00 0.00 61 1011.9
20260503201538 64 284 0.0 0.0 0.00 0.00 0.00 61 1011.9
20260503200035 63 349 0.0 0.0 0.00 0.00 0.00 60 1012.1
20260503194539 62 269 0.0 0.0 0.00 0.00 0.00 61 1012.2
20260503193009 61 269 0.0 0.0 0.00 0.00 0.00 61 1012.3
20260503191504 61 113 0.0 1.0 0.00 0.00 0.00 61 1012.4
20260503190046 61 256 0.0 0.0 0.00 0.00 0.00 60 1012.3
20260503184538 61 280 0.0 0.0 0.00 0.00 0.00 56 1012.3
20260503183019 60 256 0.0 0.0 0.00 0.00 0.00 53 1012.5
20260503181519 59 214 0.0 0.0 0.00 0.00 0.00 53 1012.3
20260503174558 60 208 0.0 2.0 0.00 0.00 0.00 54 1012.4
20260503173034 60 231 0.0 0.0 0.00 0.00 0.00 50 1012.2
20260503171529 59 133 0.0 1.0 0.00 0.00 0.00 39 1012.2
20260503100110 59 217 0.0 0.0 0.00 0.00 0.00 3 1009.9
20260503081545 59 208 0.0 0.0 0.00 0.00 0.00 3 1010.7
20260503071545 59 105 0.0 0.0 0.00 0.00 0.00 3 1010.8
20260503054558 59 205 0.0 0.0 0.00 0.00 0.00 3 1011.2
20260503053042 59 201 0.0 0.0 0.00 0.00 0.00 3 1011.3
20260503051515 59 191 0.0 0.0 0.00 0.00 0.00 3 1011.3
20260503050011 59 233 0.0 0.0 0.00 0.00 0.00 3 1011.3
20260503044550 59 190 0.0 0.0 0.00 0.00 0.00 3 1011.2
20260503043048 58 211 0.0 0.0 0.00 0.00 0.00 3 1011.2
20260503041525 58 218 0.0 0.0 0.00 0.00 0.00 3 1011.1
20260503040031 58 180 0.0 0.0 0.00 0.00 0.00 5 1010.9
20260503034611 58 217 0.0 0.0 0.00 0.00 0.00 9 1010.7
20260503033105 58 194 0.0 0.0 0.00 0.00 0.00 12 1010.5
20260503031536 58 152 0.0 0.0 0.00 0.00 0.00 15 1010.5
20260503030029 58 169 0.0 0.0 0.00 0.00 0.00 18 1010.4
20260503024506 58 201 0.0 0.0 0.00 0.00 0.00 22 1010.6
20260503023000 58 204 0.0 2.0 0.00 0.00 0.00 30 1010.5
20260503021537 58 232 0.0 2.0 0.00 0.00 0.00 31 1010.5
20260503020034 58 214 0.0 1.0 0.00 0.00 0.00 36 1010.6
20260503014514 58 199 0.0 5.0 0.00 0.00 0.00 39 1010.6
20260503013007 58 205 0.0 3.0 0.00 0.00 0.00 43 1010.8
20260503011545 59 163 0.0 1.0 0.00 0.00 0.00 44 1010.8
20260503010041 59 184 0.0 2.0 0.00 0.00 0.00 49 1010.7
20260503004519 59 172 0.0 1.0 0.00 0.00 0.00 47 1010.8
20260503003015 59 238 0.0 3.0 0.00 0.00 0.00 52 1010.8
20260503001553 60 250 0.0 1.0 0.00 0.00 0.00 56 1010.8
20260503000050 60 270 0.0 2.0 0.00 0.00 0.00 59 1010.9
20260502234539 61 271 0.0 5.0 0.00 0.00 0.00 59 1010.9
20260502233023 62 203 0.0 3.0 0.00 0.00 0.00 57 1011.0
20260502231619 62 219 0.0 6.0 0.00 0.00 0.00 57 1011.0
20260502230056 62 217 0.0 2.0 0.00 0.00 0.00 56 1011.3
20260502224552 62 218 0.0 5.0 0.00 0.00 0.00 54 1011.4
20260502223030 62 225 0.0 2.0 0.00 0.00 0.00 50 1011.6
20260502221526 62 267 0.0 9.0 0.00 0.00 0.00 51 1011.7
20260502220004 63 204 0.0 2.0 0.00 0.00 0.00 50 1011.8
20260502214601 63 208 0.0 1.0 0.00 0.00 0.00 46 1011.9
20260502213038 62 203 0.0 2.0 0.00 0.00 0.00 46 1011.9